Zurück zum Katalog

NOAA 16 DEB

AktivSSO
NORAD 41358·DEBRIS·🇺🇸 United States

Gestartet Sep 21, 2000 von Vandenberg Space Force Base

Loading…

Nächste Überflüge (nächste 24 Stunden)

TLE

AktuellSource: Space-Track

Epoche: Sep 14, 2026, 09:21 UTC

1 41358U 00055JB  26257.38985549  .00001852  00000-0  75758-3 0  9995
2 41358  98.6161 314.9190 0016534  75.8475 284.4543 14.28353717548925

Verfolge NOAA 16 DEB in Echtzeit mit AllMySat

Download on the App Store